Temp
14 13 13 13 15 15 15 14 14 15 15 14 14 14 15 17 18 17 17 17 17 16 16 16 15 16 16 15 16 15 15 14 11 11 10 10 10 9 9 9 9 8 8
13 13 13 13 14 15 14 14 14 15 15 15 15 15 17 16 17 16 17 16 16 16 15 15 15 15 15 15 15 14 14 13 13 10 10 9 9 9 9 8 8 7 7
13 13 13 13 14 14 14 14 14 14 15 15 15 15 16 16 15 16 16 16 15 16 15 14 14 14 14 14 13 14 13 13 13 11 9 8 9 8 7 7 6 7 7
13 13 13 13 13 13 14 14 14 16 14 15 17 17 16 15 15 15 15 15 14 14 15 15 14 14 14 14 13 12 12 11 11 10 9 8 8 7 6 6 6 6 6
11 11 12 13 12 13 14 14 14 14 14 14 14 14 14 14 14 14 13 13 13 15 15 14 15 15 14 13 13 12 11 10 9 9 8 6 6 5 5 5 5 4 4
9 10 11 12 12 12 12 13 13 13 13 13 13 13 13 14 13 13 13 13 14 15 14 13 13 13 13 13 12 11 12 11 10 9 7 6 6 6 6 5 4 3 3
8 8 9 10 10 10 11 11 10 10 11 11 11 13 12 13 13 13 13 13 12 13 12 13 13 12 11 10 10 10 9 9 11 10 8 7 7 7 6 4 4 3 3
7 8 9 9 8 9 10 10 10 11 11 10 9 9 9 8 9 10 10 10 10 10 11 10 10 9 9 8 8 7 7 8 8 8 7 7 7 6 5 5 4 3 2
6 6 6 7 7 7 8 8 8 9 9 10 9 9 10 9 9 8 8 8 8 7 7 7 7 8 7 7 7 7 7 6 6 5 5 5 5 4 4 3 2 1 1
5 6 7 7 7 6 6 7 6 6 5 6 6 7 7 6 6 8 8 7 7 6 6 6 7 6 6 6 6 6 5 5 4 3 3 3 3 3 3 3 1 1 1
5 5 5 6 6 6 6 6 6 7 7 7 6 6 6 5 5 5 5 6 6 6 6 6 5 5 5 5 4 5 5 5 3 3 3 2 2 2 2 1 1 1 0
5 5 5 5 5 5 5 5 6 6 5 5 5 5 5 5 5 5 5 5 4 5 5 6 5 5 5 4 3 4 3 3 3 2 2 1 1 1 1 1 1 0 -0
5 4 4 5 5 5 5 4 4 4 4 4 4 4 4 4 4 4 4 4 4 4 4 4 4 4 4 4 3 3 3 3 2 1 0 1 1 1 0 -0 -0 -0 -0
3 3 4 3 3 3 3 3 3 2 3 3 3 3 4 4 4 4 4 4 4 3 3 3 4 3 3 3 3 2 2 2 2 1 1 1 0 -0 -0 -0 -1 -1 -1
3 2 2 2 1 1 1 1 1 1 1 2 2 2 2 3 3 3 3 3 3 3 3 3 3 2 2 2 2 1 1 1 1 0 0 0 -0 -0 -1 -1 -1 -2 -2
2 1 1 1 -0 -1 -1 -0 1 1 1 1 1 1 1 2 2 2 2 2 2 2 2 2 2 2 2 2 1 0 -0 -0 -0 -0 -0 -0 -0 -1 -1 -2 -2 -2 -3
0 0 0 -0 -0 -1 -1 -1 -1 0 -0 -1 -0 -0 -0 0 1 1 1 2 2 2 1 2 1 1 0 0 0 0 -0 0 0 -0 -0 -1 -1 -1 -2 -2 -2 -3 -4
1 0 -0 -1 -1 -1 -1 -1 -2 -2 -2 -2 -2 -2 -2 -1 -0 0 -0 0 1 1 1 1 0 -0 0 -0 -0 -0 -0 -0 -1 -1 -1 -1 -1 -1 -2 -2 -2 -3 -3
1 0 -0 -0 -1 -1 -1 -2 -2 -2 -2 -2 -2 -1 -2 -2 -2 -2 -2 -2 -2 -2 -1 -1 -1 -1 -1 -1 -1 -1 -1 -1 -1 -1 -1 -1 -1 -1 -2 -2 -2 -2 -3
1 0 -0 -1 -1 -1 -2 -2 -2 -2 -3 -3 -3 -3 -2 -3 -3 -4 -3 -3 -3 -3 -3 -3 -3 -2 -2 -2 -1 -1 -1 -1 -1 -1 -1 -1 -1 -1 -2 -2 -2 -3 -3
-0 -0 -1 -1 -1 -2 -2 -2 -3 -3 -3 -3 -3 -3 -3 -3 -4 -4 -4 -4 -4 -4 -4 -4 -4 -3 -3 -2 -2 -2 -2 -2 -1 -1 -1 -1 -1 -1 -1 -2 -2 -3 -3
-1 -1 -1 -1 -2 -2 -2 -2 -3 -3 -3 -3 -3 -3 -4 -4 -4 -5 -5 -5 -5 -5 -5 -5 -5 -5 -4 -4 -3 -3 -2 -2 -2 -2 -2 -2 -1 -1 -1 -2 -2 -3 -3
-1 -1 -1 -1 -2 -2 -2 -2 -2 -3 -3 -3 -4 -4 -4 -5 -5 -5 -5 -5 -6 -6 -6 -6 -6 -5 -5 -5 -4 -4 -3 -3 -2 -2 -2 -2 -2 -2 -2 -2 -3 -3 -3
-1 -1 -2 -2 -2 -2 -3 -3 -3 -3 -3 -3 -4 -4 -5 -5 -5 -6 -6 -6 -6 -6 -6 -6 -6 -7 -7 -6 -5 -5 -4 -4 -3 -3 -3 -3 -3 -3 -3 -3 -3 -3 -3
-1 -2 -2 -2 -3 -3 -3 -3 -3 -3 -4 -4 -4 -5 -5 -6 -6 -6 -7 -7 -7 -7 -7 -7 -8 -8 -8 -7 -7 -6 -6 -5 -5 -4 -4 -4 -3 -3 -3 -3 -3 -4 -4
-2 -2 -2 -3 -3 -3 -3 -3 -4 -4 -4 -4 -5 -5 -6 -6 -7 -7 -7 -8 -8 -8 -8 -8 -8 -8 -8 -7 -7 -7 -7 -7 -6 -6 -5 -5 -5 -4 -4 -4 -4 -4 -4
Height
686 691 694 700 705 708 710 710 716 724 728 738 746 753 758 761 769 776 781 786 791 796 800 804 808 811 813 815 816 822 824 824 818 827 832 831 832 836 837 836 835 837 835
681 686 693 698 701 703 707 709 713 723 729 739 745 748 751 759 765 770 775 780 785 789 796 799 803 808 810 810 811 814 819 818 815 826 829 828 829 831 833 833 834 832 830
677 682 690 697 702 705 706 708 718 724 729 736 742 745 750 756 762 767 771 776 779 782 791 793 798 801 804 807 809 805 811 811 805 821 825 825 824 828 830 831 831 828 828
676 681 690 693 698 703 706 712 718 722 728 734 740 745 749 755 760 764 768 772 777 779 784 789 792 794 799 801 804 805 803 809 807 807 819 820 821 824 827 828 826 823 824
685 688 690 694 694 698 705 714 719 725 731 737 741 744 749 754 758 762 767 769 771 774 779 783 783 785 789 794 797 798 800 804 806 805 814 819 815 818 821 821 822 821 819
697 699 701 702 704 709 713 719 723 730 733 737 742 746 750 755 759 762 764 766 767 771 774 776 778 780 782 786 790 790 791 797 799 802 807 810 811 812 814 815 816 816 817
708 712 712 716 719 722 724 726 730 731 736 739 740 744 750 752 757 759 761 762 764 764 767 768 771 774 775 776 779 781 788 790 794 798 801 800 804 805 807 807 809 811 812
720 720 722 725 727 730 732 733 735 736 739 742 745 749 751 753 754 755 755 757 756 760 760 761 764 766 769 775 778 776 786 789 790 795 795 797 798 800 803 804 807 808 810
731 734 736 736 736 737 737 739 743 744 746 746 748 749 749 751 752 756 756 757 760 761 762 763 766 767 772 776 780 782 787 787 789 792 791 794 795 796 799 802 805 806 808
744 745 745 745 746 748 748 747 749 751 753 755 756 755 754 756 756 753 757 759 759 762 764 766 767 771 774 776 779 782 785 785 789 790 786 789 791 791 793 797 802 805 805
755 756 755 753 752 752 755 756 755 753 755 756 755 758 760 760 758 759 760 760 757 761 762 766 770 773 773 775 779 777 779 786 788 789 787 785 788 791 792 793 795 798 802
760 761 761 760 760 759 758 759 760 760 760 758 758 760 761 763 763 763 761 759 761 764 760 762 767 770 773 774 776 779 781 785 787 783 781 781 785 786 790 792 793 795 797
765 768 767 766 767 766 762 765 766 766 766 766 765 764 763 764 767 766 763 763 763 761 762 764 765 767 767 769 773 777 778 779 782 783 782 781 780 784 786 788 790 792 793
774 774 774 775 774 775 769 767 770 770 769 770 768 766 765 766 765 765 765 765 764 764 763 762 762 763 767 768 769 769 771 773 777 777 777 779 779 780 779 782 787 787 790
778 781 780 778 776 775 774 772 773 774 774 771 771 768 767 766 766 767 765 763 762 762 762 761 761 761 761 762 764 766 768 770 772 773 773 775 776 778 778 780 782 784 783
783 782 778 777 775 777 776 773 770 769 771 771 769 769 766 764 766 765 765 763 761 760 760 760 761 761 760 760 760 760 761 762 763 765 766 767 770 773 774 777 778 777 777
783 781 780 778 780 777 772 769 766 769 769 770 769 769 767 763 763 763 763 761 758 759 758 757 758 759 759 758 757 756 756 756 756 758 759 760 762 765 769 770 771 773 771
782 780 780 781 779 774 772 771 772 773 771 771 771 769 767 764 764 762 762 759 757 758 757 757 756 755 754 753 752 751 750 750 749 751 752 754 756 758 760 763 764 764 767
779 779 779 776 774 774 773 774 774 772 773 771 768 766 765 764 763 762 760 759 760 758 757 755 754 753 750 749 748 747 745 744 744 744 744 745 749 751 753 755 755 760 763
780 779 779 779 777 776 776 775 774 774 773 771 769 768 766 765 763 762 762 761 759 757 755 753 752 750 748 746 744 742 740 739 739 738 738 740 741 742 744 747 750 754 757
780 779 778 777 777 778 777 776 775 773 772 771 770 768 768 767 765 763 761 759 758 757 754 753 751 748 745 742 741 739 736 734 733 733 732 733 734 735 737 741 746 748 750
777 776 775 775 776 775 775 774 773 772 771 770 769 768 767 766 764 762 760 758 756 755 754 752 748 746 743 741 739 736 733 730 729 728 728 728 729 731 734 736 741 744 746
774 773 773 773 773 773 771 771 771 771 770 769 768 766 764 763 761 760 758 755 754 752 750 747 745 743 741 739 737 735 732 730 728 727 726 726 726 727 730 734 737 740 742
770 770 770 770 769 769 769 768 768 769 769 768 767 765 762 761 759 757 755 752 749 748 746 744 742 740 738 737 736 735 733 730 729 728 726 726 726 727 729 732 734 737 739
768 769 769 768 767 767 767 768 767 766 766 764 763 762 759 757 756 754 751 749 747 745 743 741 739 738 737 735 734 732 731 729 728 728 728 727 728 728 729 730 733 735 737
765 765 765 765 765 765 766 764 763 762 761 760 759 757 756 753 752 750 748 746 744 741 739 738 737 736 735 733 731 730 729 728 728 727 727 728 728 729 730 730 731 733 736
Wind_Speed
28 27 29 33 31 18 6 31 37 35 33 33 37 38 40 44 42 38 37 36 34 34 32 30 26 26 26 26 21 23 21 18 6 11 15 16 16 15 13 11 10 11 8
28 27 26 24 27 23 26 28 35 34 36 37 37 37 38 39 38 38 37 37 37 35 34 30 29 28 27 27 28 26 24 18 12 12 18 18 17 15 13 12 11 12 11
23 23 19 21 25 20 25 32 33 32 34 36 34 34 35 36 36 36 37 39 37 37 35 32 35 32 32 31 29 29 27 24 21 15 16 15 15 14 13 12 11 8 8
26 24 19 15 24 22 20 24 27 28 27 28 30 33 34 34 35 36 39 37 34 36 34 35 38 34 37 35 34 32 27 25 21 18 15 15 15 13 13 12 9 7 7
30 28 30 27 27 27 26 22 18 14 19 25 27 27 27 28 30 31 32 32 33 34 35 40 39 40 42 38 39 35 27 24 20 19 14 12 13 12 13 9 7 6 7
31 32 32 28 26 25 21 18 15 14 14 20 12 11 13 16 17 22 27 30 34 37 39 42 41 40 41 40 39 32 26 26 26 25 23 14 17 15 13 12 9 3 3
32 30 32 31 29 26 22 20 18 16 11 8 9 7 8 12 21 21 22 27 33 39 41 43 41 42 41 38 36 28 24 25 27 27 26 22 17 18 16 15 14 10 6
28 29 28 26 25 23 23 22 19 17 15 13 12 10 7 5 3 4 6 8 13 20 27 31 33 34 31 30 24 20 22 22 21 21 21 18 17 14 15 13 12 10 10
30 28 24 23 23 21 22 20 17 16 15 14 11 9 7 4 4 4 3 1 2 5 8 12 17 16 16 18 16 17 19 18 17 17 15 14 13 13 12 12 11 9 6
27 25 23 23 22 21 18 18 16 16 15 13 12 10 8 5 4 5 2 3 2 1 2 3 5 9 13 16 20 21 19 20 21 18 14 13 13 13 13 14 13 15 7
25 23 23 22 21 19 17 16 15 15 13 13 12 11 10 8 6 4 1 3 7 6 4 6 9 12 15 17 18 18 21 19 20 17 14 13 13 14 15 14 14 16 15
23 23 23 22 20 18 18 16 15 15 14 14 12 11 10 7 4 2 2 2 2 5 7 10 12 12 13 15 17 16 16 15 22 20 19 18 18 16 15 14 13 14 16
23 22 20 19 18 18 19 18 18 16 16 14 13 12 12 10 8 7 6 6 7 7 7 9 11 14 17 18 20 19 17 16 18 22 23 19 16 12 12 14 14 14 13
19 19 16 15 16 15 16 17 17 18 16 15 14 14 13 11 10 9 9 9 8 10 11 10 11 14 18 20 21 21 20 22 24 25 21 15 13 15 15 15 14 14 13
15 14 16 17 16 14 14 15 12 12 11 10 10 9 11 12 12 10 9 10 11 10 11 12 12 13 16 19 20 19 19 21 22 22 18 16 16 16 16 16 14 13 11
9 11 12 13 13 12 11 10 7 8 9 9 9 10 10 9 9 9 10 10 10 11 11 13 15 16 19 21 22 23 25 25 26 25 24 23 22 22 21 19 17 15 14
9 9 9 10 8 9 11 13 15 13 9 8 7 9 9 10 12 12 12 10 10 11 11 12 15 17 18 19 20 22 27 30 30 28 29 27 26 24 22 22 18 16 14
9 7 7 6 7 9 9 9 9 10 13 14 12 10 11 10 10 11 13 13 10 10 12 16 16 16 20 22 22 24 27 28 28 29 29 27 26 25 24 22 22 19 18
8 7 8 8 9 9 8 7 8 9 10 13 15 14 12 14 11 10 11 11 13 13 14 14 16 18 19 20 22 23 24 25 26 26 27 26 27 26 23 23 21 19 19
8 6 6 6 6 8 8 8 8 8 9 10 12 13 15 16 17 14 11 10 11 12 13 14 15 15 17 19 21 22 22 22 23 24 24 25 25 24 22 21 21 20 17
7 6 5 6 8 7 6 6 5 6 7 8 9 10 10 11 13 13 13 11 11 12 13 14 14 15 14 16 17 19 21 21 21 22 23 24 24 24 22 22 21 22 20
9 8 8 9 8 8 8 8 8 8 9 10 11 11 10 11 11 12 13 12 12 12 13 15 15 14 14 14 15 14 15 16 17 18 19 21 22 23 22 22 22 21 18
11 11 11 11 11 11 11 11 11 10 11 10 12 13 13 14 14 13 13 13 14 15 15 15 16 15 11 12 11 10 9 9 9 9 11 13 16 18 19 20 20 18 18
13 13 13 13 12 13 13 13 13 12 13 14 13 13 14 15 15 15 16 16 16 16 16 17 15 12 12 12 12 11 9 6 5 5 4 6 7 9 10 12 14 15 14
14 15 15 14 14 14 14 14 14 14 14 15 14 15 15 15 15 16 17 16 15 15 15 14 11 10 12 14 14 13 12 8 6 4 5 4 4 7 8 9 10 10 11
14 14 15 14 15 14 14 15 15 14 15 14 14 14 14 15 15 16 16 15 14 14 12 11 11 12 13 14 13 11 9 8 8 7 5 4 4 5 5 5 7 8 9
Wind_Direction
213 197 186 192 193 201 223 171 178 185 183 186 192 194 195 198 204 208 211 211 211 214 215 212 212 213 211 208 207 216 218 214 141 202 216 207 209 225 248 269 283 266 262
191 179 184 191 200 212 200 182 178 184 196 200 199 196 200 203 206 207 209 211 211 211 211 208 216 214 212 207 202 210 220 212 182 201 211 207 214 230 246 265 267 264 264
190 181 181 193 199 198 175 171 180 182 188 194 195 195 200 206 209 211 213 215 215 214 212 211 214 212 211 209 215 208 211 205 188 211 207 210 217 230 242 254 260 278 290
86 103 121 187 191 194 167 168 182 190 192 203 214 215 208 211 214 215 216 219 214 213 210 220 219 212 213 214 219 216 205 205 198 191 204 206 211 225 235 246 259 276 298
74 71 73 82 90 103 127 142 152 167 196 197 204 212 213 218 217 219 222 218 215 216 215 227 221 215 213 219 216 212 205 202 197 193 205 207 201 206 217 228 244 281 288
69 69 77 79 78 86 95 101 108 118 141 182 197 205 217 228 236 233 231 233 230 228 222 224 221 218 218 222 218 216 204 210 209 206 207 212 217 217 213 213 225 239 246
68 70 74 77 78 80 84 86 79 80 95 93 113 160 203 232 237 229 225 227 226 222 220 222 222 223 224 218 211 204 215 215 226 220 218 221 223 219 212 208 212 214 219
60 67 78 81 84 88 90 88 89 89 89 86 82 95 105 74 357 308 294 288 253 246 230 225 222 221 217 212 200 185 198 206 214 225 230 232 227 221 221 223 218 222 247
57 60 68 75 74 71 72 73 76 86 91 89 88 100 112 91 42 37 48 34 312 239 236 230 222 205 200 204 205 198 205 207 213 218 215 222 218 212 215 219 215 207 233
62 67 69 69 68 70 73 76 77 79 79 77 78 76 77 79 81 107 118 142 143 217 194 206 212 212 215 212 208 201 208 212 212 206 195 197 203 205 215 226 225 210 200
67 68 66 65 67 67 66 62 68 74 74 70 68 61 51 40 38 33 330 206 168 188 194 224 225 226 216 224 233 226 226 228 217 214 203 199 208 212 215 214 214 213 216
64 60 58 59 61 63 65 66 62 54 51 51 46 41 36 28 21 354 330 6 330 261 214 226 240 240 242 235 235 240 238 235 217 206 205 207 212 214 216 218 219 220 221
56 52 52 51 48 48 55 52 53 51 48 42 38 37 25 19 5 351 335 309 286 261 255 252 240 234 220 222 227 229 224 226 224 216 217 216 220 223 211 211 217 224 228
56 51 48 52 51 51 56 51 40 33 31 23 21 18 12 11 8 2 349 328 304 287 281 268 251 239 234 231 225 221 220 225 224 227 229 229 223 212 207 211 216 217 224
41 38 40 40 40 44 52 52 53 48 36 31 16 6 358 345 344 337 336 339 329 309 286 273 256 235 226 229 230 232 230 228 229 235 235 234 223 219 214 212 215 212 210
49 38 39 31 28 25 25 21 41 26 22 22 18 9 4 6 346 328 311 307 320 313 291 273 268 253 245 242 237 237 237 234 237 236 233 231 228 224 218 215 218 215 213
41 39 37 35 28 30 32 26 13 14 23 18 11 348 346 342 340 337 334 324 296 309 290 284 274 270 266 259 252 244 242 246 247 246 235 229 225 224 218 215 219 217 212
21 27 25 25 25 29 27 23 14 4 360 2 8 10 359 350 335 324 326 327 343 320 295 287 284 280 278 277 271 261 255 252 246 244 237 236 232 226 216 218 220 219 220
353 1 1 9 19 14 11 10 6 4 352 346 351 359 5 3 353 349 342 355 348 339 333 331 310 299 296 295 289 278 269 260 254 242 237 230 229 226 224 226 225 225 222
317 322 328 336 342 343 351 354 354 353 351 354 352 349 353 347 348 345 356 346 340 342 337 333 321 314 307 302 296 290 282 272 258 246 237 234 232 230 230 231 227 219 210
294 298 303 302 314 328 328 321 324 332 337 339 338 343 339 332 333 332 333 338 331 325 328 321 317 317 318 318 306 296 286 279 272 260 248 241 236 229 229 232 231 227 226
276 282 287 293 305 308 312 316 313 317 318 321 326 329 331 325 325 322 319 319 320 322 319 314 314 319 330 320 317 312 303 292 286 277 263 247 236 234 231 225 223 224 222
276 280 285 294 304 308 304 303 307 309 312 313 316 318 323 321 319 315 312 313 312 312 314 318 315 311 311 325 331 320 319 317 306 289 274 258 240 230 227 221 217 213 216
269 272 278 289 293 295 295 297 299 298 301 306 307 309 312 314 312 310 310 307 306 305 306 311 311 312 314 310 303 310 318 328 317 306 289 258 241 225 219 221 219 221 221
266 268 271 277 280 282 282 282 284 287 294 300 301 305 310 312 309 308 311 307 303 305 306 307 307 305 304 304 308 304 293 294 293 285 272 260 245 228 208 205 211 214 219
265 267 268 270 272 276 279 281 281 284 291 297 300 304 307 308 308 308 309 305 303 305 304 303 301 302 299 301 305 304 300 294 283 277 275 259 229 223 215 208 200 206 212